Location: *
(43.7000°S, 168.7000°W)
Time: 14:58:33
(UTC+00:00)

YAOGAN 1 - Pass Details

Date: 07 July 2020
Orbit: 618 x 620 km, 97.9° (Epoch: 04 August)

Event Time Altitude Azimuth Distance (km) Brightness Sun altitude
Rises 17:31:18 0° 25° (NNE) 2,892 6.7 -13.3°
Reaches altitude 10° 17:33:29 10° 28° (NNE) 1,995 5.9 -13.0°
Maximum altitude 17:37:45 58° 107° (ESE) 735 3.2 -12.2°
Drops below altitude 10° 17:42:05 10° 185° (S) 2,024 4.9 -11.5°
Sets 17:44:19 0° 189° (S) 2,939 5.7 -11.1°
